Location: Colconda
(10.2500°N, 61.4333°W)
Time: 17:21:25
(UTC+00:00)

Daily predictions for brighter satellites

Satellite Brightness Start Highest point End
(mag) Time Altitude Azimuth Time Altitude Azimuth Time Altitude Azimuth
Centaur D-1AR AC-39 4.0 21:42:57 10° WSW 21:48:31 72° SSE 22:32:54 10° ENE
Centaur D-1AR AC-39 4.0 21:42:57 10° WSW 21:48:31 72° SSE 22:32:52 10° ENE
Centaur D-1AR AC-39 4.0 21:42:57 10° WSW 21:48:31 72° SSE 22:32:55 10° ENE
Ariane H10 4.2 22:01:56 10° WSW 22:05:55 69° S 22:28:39 10° E
GPS 2-17 Rocket1 3.2 22:02:09 10° WSW 22:06:57 86° NNW 22:11:37 10° ENE
USA 267 3.3 22:01:51 10° NE 22:08:19 67° SE 22:14:48 10° SSW
COSMO-SKYMED 1 3.2 22:04:05 10° N 22:08:21 60° WNW 22:12:37 10° SSW
RESURS DK-1 3.6 22:05:26 10° NNE 22:08:37 21° ENE 22:11:47 10° ESE
Cosmos 1626 2.2 22:08:06 10° N 22:11:49 83° W 22:15:33 10° S
YAOGAN 1 2.5 22:09:44 10° SSE 22:14:00 66° ENE 22:18:17 10° N
BREEZE-M DEB (TANK) 2.9 22:09:32 10° SW 22:14:09 85° WNW 22:16:31 10° NE
ALOS 3.4 22:12:22 10° SE 22:15:58 22° ENE 22:19:33 10° NNE
Cosmos 1821 Rocket 3.9 22:12:25 10° S 22:18:27 68° E 22:24:34 10° N
MOS 1 4.5 22:13:04 10° SSE 22:18:29 49° ENE 22:23:55 10° N
Cosmos 1934 Rocket 4.3 22:12:35 10° SSE 22:18:35 47° E 22:24:37 10° NNE
Cosmos 1300 3.1 22:16:26 10° SSE 22:20:00 39° E 22:23:35 10° NNE
Tiangong 1 0.9 22:18:09 10° NNW 22:20:44 46° NE 22:23:12 11° ESE
Cosmos 2151 2.9 22:16:33 10° N 22:20:47 88° E 22:24:59 10° S
ISS -1.9 22:19:58 10° WNW 22:22:57 33° SW 22:25:56 10° S
SPOT 3 Rocket 3.8 22:19:25 10° SSE 22:24:19 44° ENE 22:29:13 10° N
Cosmos 2239 Rocket 4.4 22:18:22 10° S 22:24:29 78° E 22:30:36 10° N
Cosmos 2058 3.1 22:23:54 10° N 22:28:00 73° W 22:32:05 10° S
Cosmos 1400 Rocket 3.9 22:26:36 10° NNW 22:30:22 47° W 22:34:07 10° SSW
Cosmos 2360 Rocket 2.2 22:24:56 10° N 22:30:28 56° ENE 22:35:59 10° SSE
FENGYUN 3A 4.2 22:25:44 10° SE 22:30:33 34° ENE 22:35:23 10° NNE
Ariane H10-3 3.6 22:26:57 10° WSW 22:31:25 27° S 22:33:11 13° SE
CZ-4 R/B 3.4 22:31:43 10° SSW 22:35:34 35° W 22:39:25 10° NW
GPS 2-14 Rocket1 4.2 22:33:32 10° W 22:36:54 30° SSW 22:40:18 10° SE
Iridium 4 Rocket 3.7 22:31:44 10° S 22:36:54 83° W 22:42:31 10° N
Cosmos 2297 Rocket 2.2 22:31:30 10° S 22:37:04 60° ESE 22:42:36 10° NNE
GPS 2-15 Rocket1 3.8 22:34:51 10° W 22:39:23 44° NNW 22:42:22 19° NE
Cosmos 2098 Rocket 3.7 22:36:04 10° SSW 22:39:34 53° W 22:43:58 10° N
Cosmos 2322 Rocket 4.0 22:34:43 10° NW 22:39:44 34° WSW 22:44:46 10° SSW
Cosmos 494 Rocket 3.9 22:34:53 10° SSW 22:40:01 89° W 22:45:08 10° NNE
ATLAS 2AS CENTAUR RB 3.2 22:08:35 10° W 22:40:26 85° S 22:43:47 22° E
Centaur AC-116 3.0 22:35:10 10° WNW 22:40:47 44° NNE 22:41:48 29° ENE
COSMOS 2428 3.6 22:36:20 10° NNE 22:40:53 24° ENE 22:43:38 17° ESE
MONITOR-E 4.4 22:38:15 10° S 22:41:19 70° W 22:44:21 10° NNW
Hubble Space Telescope 3.4 22:40:44 10° NNW 22:41:32 10° NNW 22:42:20 10° N
ARIANE 5 DEB (SYLDA) 2.6 22:39:47 10° WSW 22:41:38 29° S 22:42:05 25° SSE
Cosmos 1452 Rocket 3.4 22:40:17 10° N 22:45:32 80° ENE 22:50:48 10° SSE
Meteor 2-2 Rocket 4.2 22:40:14 10° S 22:45:58 64° E 22:51:35 10° NNE
Meteor 2-10 4.0 22:41:20 10° S 22:46:21 83° W 22:51:23 10° N
Cosmos 2082 3.6 22:40:42 10° S 22:46:24 74° ESE 22:52:06 10° NNE
Cosmos 1151 Rocket 4.4 22:45:40 10° SSE 22:47:51 21° ESE 22:47:51 21° ESE
Cosmos 1605 Rocket 3.9 22:46:49 10° S 22:52:55 64° E 22:58:56 10° NNE
Cosmos 921 Rocket 3.5 22:58:25 10° NNW 23:02:40 60° W 23:06:51 10° S
NOAA 12 4.2 23:01:27 10° S 23:06:43 79° WSW 23:12:00 10° NNW
Cosmos 2123 Rocket 4.2 23:01:01 10° NNE 23:06:59 47° E 23:13:00 10° SSE
Cosmos 2322 3.8 23:02:24 10° NNW 23:08:05 77° WSW 23:13:44 10° S
Cosmos 2251 Rocket 3.9 23:03:22 10° SSW 23:08:33 63° WNW 23:13:45 10° N
Cosmos 1515 Rocket 3.4 23:05:18 10° S 23:09:39 62° E 23:10:08 57° ENE
Meteor 1-27 4.1 23:06:48 10° S 23:12:21 63° E 23:16:16 20° NNE
ERBS 3.2 23:09:51 10° SSW 23:12:11 41° SSW 23:12:11 41° SSW
SL-24 R/B - RUBIN 2 3.6 23:12:57 10° NNW 23:17:15 71° WSW 23:19:27 27° S
Cosmos 2219 Rocket 4.1 23:12:53 10° N 23:13:43 14° NNE 23:13:43 14° NNE
Meteor 2-17 Rocket 4.2 23:20:14 10° S 23:26:16 76° E 23:29:23 30° NNE
ATLAS 3B CENTAUR R/B 3.6 23:29:18 10° WNW 23:35:13 64° SSW 23:45:27 22° SE
Cosmos 2228 Rocket 4.5 23:36:56 10° SSW 23:41:04 37° W 23:43:30 21° NNW
Cosmos 2333 4.3 23:38:16 10° NNW 23:43:59 74° WSW 23:44:58 60° SSW
Palapa B4 Rocket 4.0 23:39:27 10° W 23:44:37 70° NNW 23:44:44 69° N
ARIANE 5 DEB (SYLDA) 4.2 23:40:20 10° WSW 23:44:59 57° S 23:45:04 57° S
Atlas Centaur 2 3.9 23:47:03 10° NW 23:48:45 19° NNW 23:48:45 19° NNW
